Location: Newark
(42.9858°N, 0.6717°E)
Time: 07:22:23
(UTC+00:00)

Tiros 1 - Visible Passes

Search period start: 14 November 2019 00:00
Search period end: 24 November 2019 00:00
Orbit: 630 x 664 km, 48.4° (Epoch: 14 November)

Date Brightness Start Highest point End Pass type
(mag) Time Alt. Az. Time Alt. Az. Time Alt. Az.
14 Nov 7.8 18:14:45 10° WNW 18:19:12 44° N 18:20:39 33° NE visible
14 Nov 9.8 19:57:23 10° WNW 19:58:18 16° WNW 19:58:18 16° WNW visible
15 Nov 7.5 16:58:16 10° W 17:02:49 56° NNW 17:07:26 10° ENE visible
15 Nov 7.8 18:41:07 10° WNW 18:45:32 43° N 18:45:32 43° N visible
16 Nov 7.8 17:24:41 10° W 17:29:08 44° N 17:32:48 15° ENE visible
16 Nov 8.3 19:07:21 10° WNW 19:10:27 37° NW 19:10:27 37° NW visible
17 Nov 7.8 17:51:05 10° WNW 17:55:31 42° N 17:57:44 25° ENE visible
17 Nov 9.2 19:33:28 10° WNW 19:35:24 24° WNW 19:35:24 24° WNW visible
18 Nov 7.4 18:17:19 10° WNW 18:21:51 50° NNE 18:22:43 44° NE visible
18 Nov 9.9 19:59:34 10° WNW 20:00:23 15° WNW 20:00:23 15° WNW visible
19 Nov 7.8 17:01:02 10° WNW 17:05:27 42° N 17:09:54 10° ENE visible
19 Nov 7.2 18:43:26 10° WNW 18:47:45 68° NNW 18:47:45 68° NNW visible
20 Nov 7.5 17:27:18 10° WNW 17:31:48 48° NNE 17:35:11 17° E visible
20 Nov 8.1 19:09:33 10° WNW 19:12:52 45° W 19:12:52 45° W visible
21 Nov 7.1 17:53:25 10° WNW 17:58:04 68° NNE 18:00:25 28° E visible
21 Nov 9.3 19:35:51 10° WNW 19:38:06 24° W 19:38:06 24° W visible
22 Nov 7.2 18:19:31 10° WNW 18:24:10 73° SSW 18:25:46 40° SE visible
22 Nov 10.1 20:02:49 10° W 20:03:29 12° W 20:03:29 12° W visible
23 Nov 7.2 17:03:24 10° WNW 17:08:01 65° NNE 17:12:39 10° ESE visible
23 Nov 8.3 18:45:48 10° WNW 18:50:04 37° SW 18:51:19 31° S visible
